When you browse on this site, cookies collect data to enhance your experience and personalize the content and advertising you see.
Visit our Privacy Policy to learn more. By continuing to use the site, you agree to this use of cookies and data.
  • In Germany
  • List of Countries
  • For 7 days
  • Water Temperature
  • Satellite Maps
  • Weather Map
  • Weather Widgets
  • user-avatar
    Login

    Hourly Weather Samos

    Today, 22 January, Tuesday

    Time Temperature Precipitation Wind Pressure Humidity
    00:00 +8°C° 0 mm 1 mps 721 mmHg 88%
    01:00 +8°C° 0 mm 1 mps 721 mmHg 88%
    02:00 +7°C° 0 mm 0 mps 721 mmHg 86%
    03:00 +8°C° 0 mm 1 mps 721 mmHg 86%
    04:00 +8°C° 0 mm 1 mps 720 mmHg 86%
    05:00 +8°C° 0 mm 1 mps 720 mmHg 86%
    06:00 +8°C° 0 mm 1 mps 720 mmHg 87%
    07:00 +7°C° 0 mm 2 mps 720 mmHg 88%
    08:00 +8°C° 0 mm 2 mps 720 mmHg 90%
    09:00 +8°C° 0 mm 2 mps 720 mmHg 89%
    10:00 +9°C° 0 mm 2 mps 720 mmHg 87%
    11:00 +10°C° 0 mm 2 mps 720 mmHg 86%
    12:00 +10°C° 0 mm 3 mps 720 mmHg 85%
    13:00 +10°C° 0 mm 3 mps 720 mmHg 84%
    14:00 +10°C° 0 mm 3 mps 720 mmHg 83%
    15:00 +10°C° 0 mm 4 mps 719 mmHg 83%
    16:00 +10°C° 0 mm 4 mps 719 mmHg 84%
    17:00 +10°C° 0 mm 4 mps 719 mmHg 85%
    18:00 +9°C° 0.1 mm 5 mps 719 mmHg 85%
    19:00 +9°C° 0.1 mm 5 mps 719 mmHg 86%
    20:00 +9°C° 0.1 mm 6 mps 719 mmHg 86%
    21:00 +9°C° 0 mm 6 mps 719 mmHg 86%
    22:00 +9°C° 0 mm 7 mps 719 mmHg 85%
    23:00 +9°C° 0 mm 7 mps 719 mmHg 85%

    Tomorrow, 23 January, Wednesday

    Time Temperature Precipitation Wind Pressure Humidity
    00:00 +9°C° 0.1 mm 8 mps 718 mmHg 84%
    01:00 +9°C° 0.1 mm 8 mps 718 mmHg 83%
    02:00 +8°C° 0.1 mm 9 mps 718 mmHg 83%
    03:00 +9°C° 0.2 mm 8 mps 718 mmHg 83%
    04:00 +9°C° 0.2 mm 8 mps 717 mmHg 83%
    05:00 +9°C° 0.2 mm 8 mps 717 mmHg 83%
    06:00 +9°C° 0.3 mm 8 mps 717 mmHg 83%
    07:00 +8°C° 0.3 mm 9 mps 717 mmHg 84%
    08:00 +8°C° 0.3 mm 9 mps 717 mmHg 84%
    09:00 +8°C° 0.5 mm 9 mps 717 mmHg 85%
    10:00 +10°C° 0.5 mm 9 mps 717 mmHg 85%
    11:00 +10°C° 0.5 mm 9 mps 717 mmHg 85%
    12:00 +9°C° 1 mm 10 mps 716 mmHg 86%
    13:00 +8°C° 1 mm 10 mps 716 mmHg 86%
    14:00 +8°C° 1 mm 10 mps 715 mmHg 87%
    15:00 +8°C° 1.4 mm 10 mps 714 mmHg 87%
    16:00 +8°C° 1.4 mm 10 mps 714 mmHg 86%
    17:00 +8°C° 1.4 mm 10 mps 714 mmHg 86%
    18:00 +8°C° 0.6 mm 10 mps 713 mmHg 85%
    19:00 +8°C° 0.6 mm 10 mps 713 mmHg 83%
    20:00 +8°C° 0.6 mm 11 mps 712 mmHg 82%
    21:00 +8°C° 0.4 mm 12 mps 712 mmHg 82%
    22:00 +8°C° 0.4 mm 12 mps 712 mmHg 81%
    23:00 +9°C° 0.4 mm 13 mps 711 mmHg 81%

    Day after tomorrow, 24 January, Thursday

    Time Temperature Precipitation Wind Pressure Humidity
    00:00 +8°C° 1.6 mm 13 mps 711 mmHg 83%
    01:00 +8°C° 1.6 mm 13 mps 710 mmHg 84%
    02:00 +8°C° 1.6 mm 13 mps 709 mmHg 85%
    03:00 +8°C° 3.5 mm 14 mps 708 mmHg 85%
    04:00 +8°C° 3.5 mm 15 mps 707 mmHg 85%
    05:00 +7°C° 3.5 mm 16 mps 707 mmHg 85%
    06:00 +9°C° 2.3 mm 15 mps 706 mmHg 83%
    07:00 +9°C° 2.3 mm 15 mps 706 mmHg 82%
    08:00 +9°C° 2.3 mm 14 mps 706 mmHg 80%
    09:00 +9°C° 1.2 mm 14 mps 705 mmHg 82%
    10:00 +9°C° 1.2 mm 13 mps 705 mmHg 83%
    11:00 +8°C° 1.2 mm 12 mps 705 mmHg 85%
    12:00 +8°C° 1.6 mm 11 mps 705 mmHg 85%
    13:00 +8°C° 1.6 mm 10 mps 705 mmHg 85%
    14:00 +8°C° 1.6 mm 9 mps 705 mmHg 86%
    15:00 +8°C° 0.6 mm 9 mps 706 mmHg 82%
    16:00 +10°C° 0.6 mm 9 mps 706 mmHg 79%
    17:00 +9°C° 0.6 mm 10 mps 707 mmHg 76%
    18:00 +10°C° 0.1 mm 9 mps 708 mmHg 77%
    19:00 +10°C° 0.1 mm 9 mps 709 mmHg 78%
    20:00 +9°C° 0.1 mm 8 mps 710 mmHg 78%
    21:00 +9°C° 0.4 mm 8 mps 711 mmHg 78%
    22:00 +9°C° 0.4 mm 8 mps 711 mmHg 79%
    23:00 +9°C° 0.4 mm 8 mps 711 mmHg 79%

    25 January, Friday

    Time Temperature Precipitation Wind Pressure Humidity
    00:00 +8°C° 0.4 mm 9 mps 711 mmHg 79%
    01:00 +8°C° 0.4 mm 9 mps 711 mmHg 79%
    02:00 +8°C° 0.4 mm 9 mps 711 mmHg 80%
    03:00 +8°C° 1.1 mm 10 mps 711 mmHg 79%
    04:00 +8°C° 1.1 mm 10 mps 710 mmHg 79%
    05:00 +8°C° 1.1 mm 11 mps 710 mmHg 78%
    06:00 +9°C° 0.8 mm 12 mps 710 mmHg 77%
    07:00 +9°C° 0.8 mm 13 mps 709 mmHg 75%
    08:00 +9°C° 0.8 mm 14 mps 709 mmHg 73%
    09:00 +9°C° 0.7 mm 15 mps 709 mmHg 73%
    10:00 +9°C° 0.7 mm 16 mps 709 mmHg 72%
    11:00 +9°C° 0.7 mm 17 mps 709 mmHg 72%
    12:00 +9°C° 1.3 mm 17 mps 708 mmHg 74%
    13:00 +9°C° 1.3 mm 17 mps 708 mmHg 76%
    14:00 +9°C° 1.3 mm 17 mps 707 mmHg 78%
    15:00 +7°C° 4.3 mm 16 mps 707 mmHg 77%
    16:00 +8°C° 4.3 mm 14 mps 706 mmHg 76%
    17:00 +8°C° 4.3 mm 13 mps 706 mmHg 74%
    18:00 +8°C° 0.3 mm 12 mps 707 mmHg 72%
    19:00 +8°C° 0.3 mm 11 mps 707 mmHg 70%
    20:00 +8°C° 0.3 mm 11 mps 707 mmHg 67%
    21:00 +8°C° 0.3 mm 11 mps 707 mmHg 68%
    22:00 +8°C° 0.3 mm 11 mps 707 mmHg 68%
    23:00 +8°C° 0.3 mm 11 mps 707 mmHg 69%

    26 January, Saturday

    Time Temperature Precipitation Wind Pressure Humidity
    00:00 +8°C° 0.9 mm 11 mps 707 mmHg 70%
    01:00 +8°C° 0.9 mm 11 mps 706 mmHg 72%
    02:00 +8°C° 0.9 mm 12 mps 706 mmHg 74%
    03:00 +8°C° 0.9 mm 11 mps 706 mmHg 74%
    04:00 +8°C° 0.9 mm 11 mps 706 mmHg 75%
    05:00 +8°C° 0.9 mm 11 mps 705 mmHg 76%
    06:00 +8°C° 0.7 mm 11 mps 706 mmHg 76%
    07:00 +8°C° 0.7 mm 11 mps 706 mmHg 76%
    08:00 +8°C° 0.7 mm 10 mps 706 mmHg 76%
    09:00 +8°C° 1.1 mm 10 mps 706 mmHg 76%
    10:00 +8°C° 1.1 mm 10 mps 707 mmHg 77%
    11:00 +8°C° 1.1 mm 10 mps 707 mmHg 77%
    12:00 +10°C° 0.6 mm 9 mps 707 mmHg 77%
    13:00 +10°C° 0.6 mm 7 mps 708 mmHg 77%
    14:00 +10°C° 0.6 mm 6 mps 708 mmHg 77%
    15:00 +10°C° 1.1 mm 6 mps 708 mmHg 78%
    16:00 +9°C° 1.1 mm 6 mps 708 mmHg 78%
    17:00 +9°C° 1.1 mm 7 mps 708 mmHg 79%
    18:00 +9°C° 1.1 mm 6 mps 709 mmHg 79%
    19:00 +9°C° 1.1 mm 6 mps 709 mmHg 80%
    20:00 +8°C° 1.1 mm 5 mps 709 mmHg 80%
    21:00 +8°C° 1.5 mm 5 mps 709 mmHg 81%
    22:00 +8°C° 1.5 mm 5 mps 709 mmHg 82%
    23:00 +7°C° 1.5 mm 4 mps 709 mmHg 83%

    27 January, Sunday

    Time Temperature Precipitation Wind Pressure Humidity
    00:00 +7°C° 2.3 mm 5 mps 709 mmHg 87%
    01:00 +6°C° 2.3 mm 5 mps 709 mmHg 91%
    02:00 +6°C° 2.3 mm 5 mps 709 mmHg 95%
    03:00 +6°C° 1 mm 5 mps 709 mmHg 93%
    04:00 +6°C° 1 mm 5 mps 709 mmHg 92%
    05:00 +6°C° 1 mm 4 mps 709 mmHg 90%
    06:00 +6°C° 0.2 mm 4 mps 709 mmHg 90%
    07:00 +6°C° 0.2 mm 4 mps 709 mmHg 89%
    08:00 +6°C° 0.2 mm 4 mps 709 mmHg 88%
    09:00 +7°C° 0.3 mm 4 mps 709 mmHg 86%
    10:00 +7°C° 0.3 mm 4 mps 709 mmHg 84%
    11:00 +9°C° 0.3 mm 3 mps 710 mmHg 82%
    12:00 +9°C° 0.8 mm 3 mps 710 mmHg 80%
    13:00 +9°C° 0.8 mm 2 mps 710 mmHg 78%
    14:00 +11°C° 0.8 mm 1 mps 710 mmHg 76%
    15:00 +9°C° 0.7 mm 2 mps 710 mmHg 78%
    16:00 +9°C° 0.7 mm 3 mps 711 mmHg 80%
    17:00 +8°C° 0.7 mm 3 mps 711 mmHg 83%
    18:00 +7°C° 0.6 mm 4 mps 712 mmHg 82%
    19:00 +7°C° 0.6 mm 4 mps 713 mmHg 81%
    20:00 +7°C° 0.6 mm 4 mps 713 mmHg 80%
    21:00 +7°C° 0.1 mm 4 mps 714 mmHg 79%
    22:00 +8°C° 0.1 mm 3 mps 715 mmHg 78%
    23:00 +8°C° 0.1 mm 3 mps 715 mmHg 77%
    Show more